When you browse on this site, cookies collect data to enhance your experience and personalize the content and advertising you see.
Visit our Privacy Policy to learn more. By continuing to use the site, you agree to this use of cookies and data.

Stündliche Wetter San Juan

Heute, 15 Juli, Mittwoch

Zeit Temperatur Niederschläge Wind Luftdruck Luftfeuchtigkeit
00:00 +6°C° 0 mm 0 m/S 706 mmHg 58%
01:00 +6°C° 0 mm 0 m/S 706 mmHg 61%
02:00 +5°C° 0 mm 0 m/S 705 mmHg 62%
03:00 +5°C° 0 mm 0 m/S 705 mmHg 64%
04:00 +4°C° 0 mm 0 m/S 704 mmHg 66%
05:00 +5°C° 0 mm 0 m/S 705 mmHg 63%
06:00 +5°C° 0 mm 0 m/S 705 mmHg 61%
07:00 +5°C° 0 mm 0 m/S 705 mmHg 58%
08:00 +8°C° 0 mm 1 m/S 705 mmHg 50%
09:00 +11°C° 0 mm 1 m/S 706 mmHg 42%
10:00 +14°C° 0 mm 1 m/S 706 mmHg 34%
11:00 +15°C° 0 mm 1 m/S 706 mmHg 32%
12:00 +16°C° 0 mm 2 m/S 705 mmHg 30%
13:00 +17°C° 0 mm 2 m/S 704 mmHg 28%
14:00 +17°C° 0 mm 2 m/S 704 mmHg 28%
15:00 +17°C° 0 mm 2 m/S 704 mmHg 28%
16:00 +17°C° 0 mm 2 m/S 704 mmHg 29%
17:00 +15°C° 0 mm 1 m/S 705 mmHg 34%
18:00 +12°C° 0 mm 1 m/S 705 mmHg 40%
19:00 +9°C° 0 mm 0 m/S 705 mmHg 45%
20:00 +9°C° 0 mm 0 m/S 705 mmHg 48%
21:00 +9°C° 0 mm 1 m/S 705 mmHg 50%
22:00 +9°C° 0 mm 1 m/S 705 mmHg 52%
23:00 +9°C° 0 mm 1 m/S 705 mmHg 51%

Morgen, 16 Juli, Donnerstag

Zeit Temperatur Niederschläge Wind Luftdruck Luftfeuchtigkeit
00:00 +9°C° 0 mm 1 m/S 705 mmHg 50%
01:00 +9°C° 0 mm 1 m/S 704 mmHg 49%
02:00 +8°C° 0 mm 1 m/S 704 mmHg 51%
03:00 +7°C° 0 mm 1 m/S 704 mmHg 54%
04:00 +6°C° 0 mm 0 m/S 704 mmHg 56%
05:00 +7°C° 0 mm 1 m/S 705 mmHg 53%
06:00 +7°C° 0 mm 1 m/S 705 mmHg 49%
07:00 +8°C° 0 mm 1 m/S 706 mmHg 46%
08:00 +10°C° 0 mm 1 m/S 706 mmHg 40%
09:00 +13°C° 0 mm 1 m/S 706 mmHg 34%
10:00 +16°C° 0 mm 1 m/S 706 mmHg 28%
11:00 +18°C° 0 mm 1 m/S 706 mmHg 25%
12:00 +19°C° 0 mm 1 m/S 705 mmHg 23%
13:00 +20°C° 0 mm 1 m/S 705 mmHg 21%
14:00 +20°C° 0 mm 1 m/S 705 mmHg 22%
15:00 +20°C° 0 mm 1 m/S 705 mmHg 22%
16:00 +20°C° 0 mm 1 m/S 704 mmHg 22%
17:00 +18°C° 0 mm 1 m/S 704 mmHg 27%
18:00 +14°C° 0 mm 1 m/S 704 mmHg 32%
19:00 +12°C° 0 mm 1 m/S 703 mmHg 37%
20:00 +10°C° 0 mm 0 m/S 703 mmHg 39%
21:00 +10°C° 0 mm 0 m/S 703 mmHg 42%
22:00 +9°C° 0 mm 0 m/S 703 mmHg 44%
23:00 +9°C° 0 mm 0 m/S 703 mmHg 46%

übermorgen, 17 Juli, Freitag

Zeit Temperatur Niederschläge Wind Luftdruck Luftfeuchtigkeit
00:00 +8°C° 0 mm 0 m/S 702 mmHg 48%
01:00 +9°C° 0 mm 1 m/S 702 mmHg 50%
02:00 +9°C° 0 mm 1 m/S 701 mmHg 50%
03:00 +9°C° 0 mm 1 m/S 701 mmHg 50%
04:00 +8°C° 0 mm 1 m/S 701 mmHg 50%
05:00 +8°C° 0 mm 1 m/S 701 mmHg 49%
06:00 +8°C° 0 mm 1 m/S 700 mmHg 47%
07:00 +8°C° 0 mm 1 m/S 700 mmHg 45%
08:00 +11°C° 0 mm 1 m/S 701 mmHg 40%
09:00 +14°C° 0 mm 1 m/S 701 mmHg 34%
10:00 +18°C° 0 mm 1 m/S 701 mmHg 28%
11:00 +18°C° 0 mm 2 m/S 701 mmHg 25%
12:00 +20°C° 0 mm 2 m/S 700 mmHg 22%
13:00 +21°C° 0 mm 2 m/S 699 mmHg 19%
14:00 +21°C° 0 mm 2 m/S 699 mmHg 19%
15:00 +21°C° 0 mm 2 m/S 699 mmHg 19%
16:00 +21°C° 0 mm 2 m/S 699 mmHg 19%
17:00 +20°C° 0 mm 1 m/S 699 mmHg 22%
18:00 +16°C° 0 mm 1 m/S 699 mmHg 25%
19:00 +14°C° 0 mm 1 m/S 699 mmHg 28%
20:00 +13°C° 0 mm 1 m/S 699 mmHg 30%
21:00 +13°C° 0 mm 1 m/S 699 mmHg 32%
22:00 +12°C° 0 mm 1 m/S 699 mmHg 35%
23:00 +12°C° 0 mm 1 m/S 699 mmHg 37%

18 Juli, Samstag

Zeit Temperatur Niederschläge Wind Luftdruck Luftfeuchtigkeit
00:00 +12°C° 0 mm 1 m/S 699 mmHg 39%
01:00 +11°C° 0 mm 1 m/S 699 mmHg 41%
02:00 +11°C° 0 mm 1 m/S 699 mmHg 42%
03:00 +11°C° 0 mm 1 m/S 698 mmHg 43%
04:00 +10°C° 0 mm 1 m/S 698 mmHg 44%
05:00 +10°C° 0 mm 1 m/S 699 mmHg 42%
06:00 +9°C° 0 mm 2 m/S 699 mmHg 41%
07:00 +10°C° 0 mm 2 m/S 700 mmHg 39%
08:00 +13°C° 0 mm 2 m/S 700 mmHg 36%
09:00 +16°C° 0 mm 3 m/S 701 mmHg 34%
10:00 +19°C° 0 mm 3 m/S 702 mmHg 31%
11:00 +20°C° 0 mm 3 m/S 701 mmHg 30%
12:00 +20°C° 0 mm 3 m/S 701 mmHg 29%
13:00 +21°C° 0 mm 3 m/S 700 mmHg 27%
14:00 +21°C° 0 mm 3 m/S 700 mmHg 28%
15:00 +21°C° 0 mm 3 m/S 700 mmHg 29%
16:00 +21°C° 0 mm 3 m/S 700 mmHg 29%
17:00 +19°C° 0 mm 3 m/S 700 mmHg 34%
18:00 +17°C° 0 mm 2 m/S 700 mmHg 39%
19:00 +15°C° 0 mm 2 m/S 701 mmHg 43%
20:00 +15°C° 0 mm 2 m/S 701 mmHg 46%
21:00 +14°C° 0 mm 2 m/S 701 mmHg 49%
22:00 +14°C° 0 mm 2 m/S 701 mmHg 51%
23:00 +12°C° 0 mm 3 m/S 701 mmHg 57%

19 Juli, Sonntag

Zeit Temperatur Niederschläge Wind Luftdruck Luftfeuchtigkeit
00:00 +11°C° 0 mm 3 m/S 701 mmHg 64%
01:00 +11°C° 0 mm 3 m/S 701 mmHg 70%
02:00 +10°C° 0 mm 2 m/S 701 mmHg 71%
03:00 +10°C° 0 mm 2 m/S 700 mmHg 73%
04:00 +9°C° 0 mm 2 m/S 700 mmHg 74%
05:00 +10°C° 0 mm 1 m/S 701 mmHg 75%
06:00 +10°C° 0 mm 1 m/S 701 mmHg 76%
07:00 +10°C° 0 mm 1 m/S 701 mmHg 76%
08:00 +12°C° 0 mm 1 m/S 701 mmHg 69%
09:00 +14°C° 0 mm 2 m/S 702 mmHg 63%
10:00 +16°C° 0 mm 2 m/S 702 mmHg 56%
11:00 +17°C° 0 mm 2 m/S 701 mmHg 52%
12:00 +18°C° 0 mm 2 m/S 701 mmHg 49%
13:00 +19°C° 0 mm 2 m/S 700 mmHg 45%
14:00 +19°C° 0 mm 3 m/S 700 mmHg 46%
15:00 +19°C° 0 mm 3 m/S 700 mmHg 46%
16:00 +19°C° 0 mm 3 m/S 700 mmHg 47%
17:00 +17°C° 0 mm 3 m/S 700 mmHg 52%
18:00 +16°C° 0 mm 2 m/S 700 mmHg 58%
19:00 +14°C° 0 mm 2 m/S 701 mmHg 64%
20:00 +14°C° 0 mm 2 m/S 701 mmHg 66%
21:00 +13°C° 0 mm 2 m/S 701 mmHg 68%
22:00 +13°C° 0 mm 2 m/S 701 mmHg 71%
23:00 +12°C° 0 mm 2 m/S 701 mmHg 74%

20 Juli, Montag

Zeit Temperatur Niederschläge Wind Luftdruck Luftfeuchtigkeit
00:00 +12°C° 0 mm 2 m/S 701 mmHg 78%
01:00 +10°C° 0 mm 2 m/S 701 mmHg 82%
02:00 +10°C° 0 mm 2 m/S 701 mmHg 83%
03:00 +9°C° 0 mm 2 m/S 700 mmHg 85%
04:00 +9°C° 0 mm 2 m/S 700 mmHg 87%
05:00 +9°C° 0 mm 2 m/S 701 mmHg 88%
06:00 +9°C° 0 mm 2 m/S 701 mmHg 90%
07:00 +9°C° 0 mm 2 m/S 701 mmHg 91%
08:00 +10°C° 0 mm 3 m/S 702 mmHg 84%
09:00 +12°C° 0 mm 3 m/S 702 mmHg 77%
10:00 +14°C° 0 mm 4 m/S 703 mmHg 70%
11:00 +15°C° 0 mm 4 m/S 702 mmHg 66%
12:00 +17°C° 0 mm 4 m/S 702 mmHg 62%
13:00 +17°C° 0 mm 4 m/S 701 mmHg 58%
14:00 +17°C° 0 mm 4 m/S 701 mmHg 57%
15:00 +18°C° 0 mm 4 m/S 701 mmHg 56%
16:00 +18°C° 0 mm 4 m/S 701 mmHg 54%
17:00 +15°C° 0 mm 4 m/S 701 mmHg 64%
18:00 +14°C° 0 mm 4 m/S 701 mmHg 73%
19:00 +12°C° 0 mm 4 m/S 701 mmHg 83%
20:00 +12°C° 0 mm 4 m/S 702 mmHg 84%
21:00 +11°C° 0 mm 4 m/S 702 mmHg 85%
22:00 +11°C° 0 mm 3 m/S 702 mmHg 86%
23:00 +11°C° 0 mm 3 m/S 702 mmHg 86%
Mehr zeigen